Wind_Speed
16 16 15 15 13 14 15 13 13 12 12 13 15 16 16 17 16 14 10 12 8 8 6 3 1 7 6 5 5 6 8 11 12 12 13 15 18 19 20 20 21 25 28 32
18 15 13 13 12 11 13 13 11 10 9 9 9 11 12 12 11 11 10 10 10 7 5 4 4 4 5 6 7 9 11 13 14 15 16 18 19 19 19 20 24 28 32 37
18 16 14 13 13 10 10 13 11 10 9 7 6 6 7 7 7 8 7 6 6 6 5 4 5 7 9 10 12 14 15 17 17 19 19 18 17 18 20 23 28 32 36 41
17 17 15 14 15 12 10 11 13 9 8 7 6 5 5 5 6 6 6 5 5 5 6 8 10 12 13 13 15 16 18 19 20 19 19 18 19 20 23 28 32 36 41 47
18 17 17 15 16 15 12 11 13 13 10 9 7 6 6 6 6 7 8 9 9 9 10 12 13 14 15 16 17 19 19 20 20 19 17 16 18 22 27 31 36 41 45 51
20 17 20 19 17 18 16 13 12 14 14 12 11 9 9 9 9 10 11 12 13 14 15 16 16 16 17 18 19 20 19 19 17 14 14 17 21 25 29 33 39 43 49 54
25 21 20 18 20 20 19 16 15 14 15 16 15 14 12 12 13 13 13 15 15 16 17 18 18 19 19 19 20 20 19 17 14 14 16 19 23 27 32 36 41 46 50 56
28 25 21 21 21 21 21 20 18 17 16 16 17 18 18 17 16 17 16 16 17 17 18 18 19 19 20 21 21 20 17 15 14 16 18 21 25 29 33 37 42 46 52 58
28 27 24 23 23 23 23 21 21 20 19 17 17 19 20 21 20 20 21 19 19 19 20 20 20 19 20 21 20 20 17 14 15 17 20 23 26 30 34 39 44 48 54 59
28 28 34 26 26 25 25 25 23 22 21 20 19 21 21 22 24 23 23 23 22 21 21 21 21 21 21 21 21 20 19 15 16 19 22 25 27 31 35 40 45 50 55 59
26 27 42 36 31 28 26 23 25 24 22 22 21 22 24 24 25 26 25 24 24 23 22 22 23 22 22 22 22 20 19 17 17 20 24 25 28 31 35 40 45 50 54 58
30 33 43 42 40 33 30 22 24 25 23 23 22 23 24 26 26 27 28 25 25 25 24 23 24 23 23 22 23 20 19 18 19 21 24 26 28 31 35 39 44 49 52 56
33 42 47 44 40 39 35 25 24 24 25 26 26 27 29 30 28 24 27 28 27 26 25 26 25 23 22 22 22 21 19 19 20 21 24 26 28 32 37 40 45 48 51 54
38 46 45 41 39 33 28 26 26 27 29 30 33 34 33 33 35 27 27 30 28 25 27 27 25 23 22 23 21 21 20 20 21 22 24 26 28 31 36 40 45 47 49 52
41 50 46 41 37 32 24 27 25 27 32 34 36 36 36 34 35 35 32 30 28 24 26 26 26 24 23 22 21 21 21 20 20 22 24 25 27 30 34 38 42 45 48 50
45 51 44 38 34 32 29 31 28 30 34 36 36 34 31 30 31 33 31 29 28 26 26 26 28 26 23 22 21 21 22 20 20 22 23 25 26 29 32 36 41 44 47 49
49 44 39 34 29 29 31 34 30 33 38 38 36 34 31 30 32 30 27 28 27 25 26 27 29 26 24 22 22 21 21 20 20 22 23 24 25 28 32 36 40 42 45 47
38 30 32 25 25 25 26 29 33 36 38 38 35 32 28 29 31 31 29 29 27 24 25 28 28 27 25 22 22 22 21 19 20 22 23 24 25 28 31 34 38 41 44 46
23 21 21 19 24 26 29 32 34 35 35 34 30 28 28 28 30 30 29 28 26 24 27 28 26 28 26 23 21 22 20 19 20 21 23 24 25 27 30 33 37 40 43 45
13 16 18 22 26 26 28 31 32 32 33 31 30 28 27 27 28 29 28 28 28 27 26 26 29 29 26 23 21 21 19 18 20 21 23 24 25 27 29 33 37 39 42 44
16 17 20 22 24 25 28 29 30 31 30 28 26 26 27 27 27 28 27 28 29 28 28 29 28 28 24 23 21 20 17 17 19 20 22 23 24 26 29 33 36 38 41 44
17 17 17 19 22 25 27 27 28 26 24 24 25 25 25 27 28 29 30 31 30 30 30 29 28 25 23 22 21 18 16 17 18 19 21 22 23 26 29 32 35 37 39 43
17 19 19 21 24 27 25 23 22 21 22 24 27 28 29 31 33 33 34 35 34 34 31 29 27 23 22 21 19 16 14 16 17 18 19 21 23 26 29 31 34 37 38 42
19 21 23 25 27 24 22 21 21 23 25 27 28 29 33 38 39 39 38 36 34 32 29 27 25 22 22 19 17 14 13 14 16 17 18 21 23 26 29 31 33 36 38 40
22 21 23 25 23 23 21 20 21 25 28 31 36 43 46 44 42 42 40 38 33 30 28 25 22 22 19 16 14 12 11 14 15 16 18 21 23 26 29 31 33 35 38 40
21 22 23 21 21 19 17 18 24 24 29 37 35 28 27 33 33 29 29 28 28 26 21 21 20 17 15 14 12 11 13 13 14 16 17 20 23 26 29 31 33 34 37 39
18 18 19 19 16 15 15 16 19 24 22 15 12 13 7 9 13 18 21 21 19 19 20 18 16 15 14 12 15 13 11 11 12 14 17 20 24 27 29 30 32 34 36 38
Wind_Direction
337 332 331 334 354 351 355 5 13 18 27 31 34 38 44 52 51 51 64 79 132 136 125 30 248 220 244 260 284 282 274 273 274 278 283 282 284 290 293 294 297 301 302 301
327 330 325 323 332 347 341 346 358 7 12 26 27 31 40 41 47 56 50 47 63 66 53 25 4 337 311 303 298 293 286 282 284 286 292 291 290 289 287 293 297 302 305 306
318 323 320 315 315 330 333 328 337 348 352 5 15 18 18 23 31 25 33 39 27 14 360 344 325 313 310 310 312 306 300 298 298 291 288 292 288 290 298 305 306 307 309 312
313 312 312 309 305 309 317 319 315 322 328 341 345 346 346 344 343 344 345 343 336 327 321 314 310 308 304 301 298 295 294 296 294 294 293 291 292 301 307 308 309 314 316 318
305 306 306 304 305 301 303 305 305 307 310 315 318 318 314 307 303 299 301 303 303 299 297 297 298 297 298 299 297 295 296 294 290 286 286 290 303 307 307 312 316 317 319 321
308 299 299 300 303 302 306 295 298 299 302 302 299 296 294 293 291 290 289 284 285 289 291 293 294 297 297 300 302 300 296 295 286 286 295 301 305 308 312 316 316 321 322 328
306 300 295 295 294 299 303 295 291 291 295 297 291 287 284 281 281 282 284 288 288 289 291 292 292 293 293 295 301 304 300 299 298 301 301 307 309 314 320 320 322 322 327 328
304 301 289 284 288 292 290 292 290 287 286 288 290 286 282 278 275 275 275 279 284 288 292 295 297 300 298 294 298 305 300 298 298 302 306 308 315 321 319 321 324 327 329 329
300 302 293 278 278 288 286 286 289 285 281 280 282 281 278 277 273 273 277 276 278 283 289 293 296 301 304 302 293 301 293 289 298 306 308 311 318 320 323 327 328 332 331 335
288 293 291 281 277 277 286 287 288 285 280 272 272 276 275 273 273 274 274 277 277 278 283 287 291 297 301 306 299 297 294 287 299 305 310 317 322 324 329 331 335 336 337 340
275 283 283 287 278 273 278 284 285 285 284 280 277 275 275 271 270 271 272 274 275 276 277 282 286 290 296 302 305 297 298 290 299 307 314 321 324 328 332 336 340 340 342 342
273 274 276 281 281 277 273 282 292 280 275 275 275 274 275 271 269 269 268 268 270 273 276 277 280 284 291 297 307 299 299 293 301 311 317 323 325 330 334 338 341 341 344 345
267 272 274 279 279 280 278 279 279 278 278 279 279 278 276 274 270 268 270 266 263 269 273 272 276 280 284 292 304 301 298 295 304 314 322 325 327 332 334 339 342 344 345 345
263 271 274 277 276 278 286 276 277 275 276 279 280 279 276 276 274 266 263 265 265 266 268 271 273 277 279 286 300 303 298 298 307 318 324 325 329 335 337 341 343 344 345 346
258 261 266 269 277 278 273 271 271 275 279 283 283 278 273 271 271 271 270 265 264 265 265 268 270 273 275 283 293 304 299 300 311 320 325 325 329 335 337 341 344 343 344 346
257 259 265 266 270 271 273 274 274 276 282 280 280 278 269 269 271 273 274 268 261 260 262 264 264 268 273 281 290 300 299 302 314 321 324 325 330 334 336 341 344 344 345 345
251 258 264 264 266 271 274 272 275 277 280 281 279 276 277 273 266 268 268 261 257 256 257 262 262 265 271 278 287 296 298 303 313 319 323 324 329 334 336 342 343 344 346 346
253 261 260 267 270 264 264 265 269 272 273 275 278 277 275 272 267 265 262 257 257 257 256 259 260 262 266 274 285 293 297 304 312 319 321 323 330 335 336 342 342 343 346 347
249 252 254 253 255 255 259 268 272 274 275 274 272 267 263 262 262 261 259 259 261 260 257 256 256 260 265 270 281 290 296 304 311 319 320 322 329 334 336 341 342 343 345 347
226 235 242 244 248 258 268 271 273 274 272 270 266 265 262 258 256 255 256 257 259 261 259 253 250 256 264 268 276 286 293 302 309 318 319 321 328 333 337 342 342 342 345 348
241 249 255 263 266 270 273 275 275 272 271 268 264 260 257 257 258 258 259 257 256 255 251 251 252 256 263 265 271 281 289 299 307 317 317 321 327 332 339 342 341 341 344 348
264 274 277 279 281 280 280 277 271 265 261 262 264 264 262 260 259 256 252 252 252 252 251 250 252 256 259 261 267 277 287 296 306 315 317 322 328 334 339 341 340 340 343 346
279 289 293 294 292 290 288 271 264 266 268 269 269 266 263 260 258 256 254 252 248 247 248 248 251 252 253 257 264 271 281 291 304 312 318 324 331 336 340 339 338 340 343 345
284 291 295 292 288 288 274 267 273 277 276 273 270 268 268 262 256 251 248 247 249 250 249 247 246 247 250 253 259 264 275 289 301 310 319 326 334 339 339 336 335 338 343 345
281 291 288 285 283 270 268 279 281 281 279 276 278 276 270 264 255 247 244 242 241 238 232 231 231 236 243 246 250 257 275 287 298 309 318 327 334 337 336 334 335 338 343 346
281 281 282 273 264 269 280 284 289 291 293 284 277 274 272 259 245 235 231 229 227 230 228 223 227 228 229 235 241 253 267 282 295 308 319 326 331 332 333 334 337 339 343 347
267 276 262 251 259 274 282 298 307 316 305 293 293 293 280 208 191 204 200 196 190 197 206 208 204 208 220 223 238 251 262 280 299 311 319 326 328 331 333 335 339 341 344 348
Height
5758 5755 5753 5751 5749 5747 5745 5743 5742 5739 5736 5734 5732 5729 5727 5725 5723 5722 5722 5721 5722 5722 5723 5723 5725 5725 5726 5727 5727 5727 5726 5728 5729 5727 5726 5726 5726 5724 5724 5723 5722 5721 5719 5717
5755 5752 5750 5749 5746 5744 5743 5742 5741 5739 5737 5735 5733 5731 5729 5728 5726 5725 5724 5725 5725 5724 5724 5724 5724 5725 5726 5726 5726 5726 5726 5726 5724 5723 5721 5721 5720 5719 5718 5717 5717 5713 5709 5706
5753 5750 5747 5747 5745 5742 5741 5740 5739 5738 5736 5734 5733 5732 5730 5729 5728 5727 5725 5725 5724 5725 5725 5724 5724 5723 5723 5722 5721 5721 5721 5720 5719 5717 5717 5716 5715 5714 5713 5710 5707 5704 5700 5695
5751 5748 5746 5743 5741 5739 5737 5737 5736 5736 5734 5733 5731 5731 5730 5729 5728 5727 5726 5725 5724 5723 5723 5723 5723 5722 5721 5719 5719 5717 5716 5714 5712 5711 5710 5709 5708 5707 5705 5702 5699 5694 5687 5680
5747 5745 5743 5740 5738 5737 5734 5733 5732 5732 5731 5730 5729 5728 5728 5727 5726 5726 5725 5724 5723 5722 5721 5720 5719 5718 5717 5716 5714 5712 5710 5708 5707 5706 5704 5703 5702 5700 5698 5693 5688 5683 5677 5670
5741 5740 5739 5737 5734 5733 5732 5730 5728 5727 5727 5727 5726 5725 5724 5724 5723 5723 5722 5722 5721 5720 5718 5717 5715 5714 5712 5710 5709 5706 5704 5702 5701 5699 5697 5697 5695 5692 5688 5683 5679 5672 5666 5656
5735 5734 5734 5733 5730 5728 5729 5730 5724 5722 5722 5721 5722 5721 5720 5719 5719 5718 5718 5718 5716 5715 5714 5712 5711 5709 5707 5705 5703 5700 5698 5695 5694 5692 5691 5688 5686 5684 5678 5673 5669 5664 5656 5647
5728 5726 5728 5726 5725 5724 5724 5722 5721 5719 5716 5715 5715 5716 5715 5715 5714 5713 5712 5711 5711 5710 5709 5708 5705 5703 5701 5698 5696 5693 5691 5690 5689 5687 5684 5682 5679 5674 5671 5667 5661 5653 5644 5636
5724 5720 5718 5719 5718 5717 5716 5716 5716 5715 5713 5710 5709 5708 5709 5708 5708 5708 5707 5706 5705 5704 5703 5702 5700 5699 5696 5693 5691 5689 5687 5685 5684 5682 5679 5675 5672 5668 5663 5657 5651 5642 5634 5623
5716 5714 5707 5711 5712 5712 5711 5709 5709 5709 5708 5705 5702 5702 5702 5702 5701 5701 5701 5700 5699 5698 5697 5696 5694 5693 5691 5688 5686 5684 5682 5679 5677 5675 5672 5668 5664 5660 5655 5649 5642 5633 5624 5612
5710 5708 5697 5702 5702 5703 5703 5704 5703 5702 5702 5700 5697 5695 5695 5695 5694 5694 5694 5694 5693 5692 5690 5689 5688 5687 5686 5683 5681 5679 5676 5674 5671 5669 5666 5662 5658 5653 5648 5641 5633 5624 5615 5605
5700 5697 5690 5691 5692 5695 5696 5696 5695 5695 5694 5693 5691 5688 5686 5686 5687 5687 5686 5686 5686 5686 5685 5683 5681 5681 5680 5677 5675 5672 5670 5668 5665 5663 5660 5656 5652 5647 5641 5634 5626 5618 5608 5598
5690 5684 5681 5682 5685 5685 5687 5688 5687 5687 5686 5685 5683 5681 5679 5677 5677 5679 5679 5678 5678 5678 5678 5676 5675 5674 5673 5672 5669 5667 5664 5663 5660 5657 5653 5650 5645 5638 5632 5626 5618 5610 5601 5591
5678 5672 5673 5673 5673 5675 5680 5679 5678 5678 5677 5676 5674 5673 5671 5669 5668 5670 5670 5669 5670 5670 5670 5670 5669 5668 5667 5666 5664 5662 5659 5657 5654 5651 5647 5644 5639 5632 5626 5619 5611 5603 5595 5584
5668 5660 5661 5666 5666 5668 5669 5670 5671 5670 5667 5666 5665 5663 5662 5660 5659 5660 5660 5661 5661 5662 5662 5662 5662 5661 5661 5660 5659 5656 5654 5651 5649 5646 5642 5638 5633 5627 5620 5613 5605 5598 5588 5579
5651 5647 5652 5656 5658 5658 5659 5660 5661 5660 5658 5655 5654 5653 5651 5651 5650 5650 5652 5653 5653 5653 5654 5655 5654 5655 5654 5654 5652 5650 5648 5645 5643 5640 5636 5632 5627 5621 5615 5607 5599 5591 5582 5572
5635 5641 5644 5644 5647 5648 5650 5649 5649 5649 5646 5644 5643 5642 5642 5641 5640 5641 5643 5644 5644 5645 5647 5647 5647 5648 5648 5647 5646 5644 5642 5640 5637 5634 5631 5627 5621 5615 5609 5601 5594 5586 5577 5566
5629 5633 5633 5636 5637 5638 5639 5639 5639 5638 5635 5633 5633 5634 5633 5632 5632 5633 5634 5635 5636 5638 5639 5639 5640 5641 5641 5641 5640 5638 5635 5634 5631 5628 5624 5620 5615 5610 5603 5596 5588 5581 5571 5562
5621 5624 5626 5628 5628 5629 5630 5629 5627 5625 5624 5623 5624 5623 5622 5621 5622 5624 5625 5627 5628 5630 5630 5630 5632 5633 5634 5634 5633 5631 5629 5627 5625 5622 5619 5615 5610 5604 5598 5590 5583 5575 5566 5557
5614 5616 5618 5619 5619 5620 5619 5617 5616 5615 5614 5613 5613 5613 5612 5612 5614 5615 5617 5618 5620 5621 5622 5623 5623 5625 5626 5626 5626 5625 5623 5621 5620 5616 5613 5609 5604 5599 5592 5585 5577 5570 5562 5552
5606 5608 5608 5608 5609 5609 5607 5607 5606 5605 5605 5604 5604 5603 5602 5603 5606 5608 5609 5610 5611 5612 5613 5614 5617 5618 5619 5619 5619 5618 5617 5616 5614 5610 5608 5604 5598 5593 5586 5579 5573 5565 5557 5548
5598 5599 5599 5599 5599 5599 5598 5598 5597 5596 5596 5595 5595 5595 5595 5596 5597 5598 5598 5600 5601 5603 5604 5607 5609 5611 5612 5612 5612 5612 5611 5610 5608 5605 5602 5598 5593 5587 5581 5574 5568 5561 5552 5543
5590 5590 5590 5590 5590 5589 5589 5589 5589 5588 5588 5587 5586 5586 5586 5586 5586 5587 5588 5588 5591 5592 5596 5599 5602 5604 5605 5606 5606 5606 5605 5604 5602 5599 5596 5592 5587 5582 5575 5570 5563 5556 5547 5539
5582 5582 5582 5583 5583 5582 5582 5581 5581 5580 5579 5577 5576 5576 5574 5574 5573 5574 5576 5578 5581 5585 5588 5591 5594 5597 5598 5600 5600 5600 5599 5598 5596 5594 5591 5587 5582 5576 5571 5565 5559 5551 5543 5535
5574 5575 5576 5576 5576 5576 5575 5575 5573 5571 5569 5567 5564 5560 5557 5555 5556 5557 5562 5566 5571 5575 5579 5583 5587 5590 5592 5593 5594 5594 5594 5593 5591 5589 5586 5582 5577 5571 5566 5560 5554 5546 5538 5530
5567 5568 5570 5570 5570 5570 5569 5568 5566 5563 5559 5553 5547 5543 5540 5538 5540 5544 5550 5556 5562 5568 5574 5578 5582 5585 5587 5588 5588 5589 5589 5588 5586 5584 5581 5576 5571 5567 5561 5556 5549 5542 5534 5526
5560 5562 5563 5564 5565 5565 5565 5562 5559 5555 5546 5541 5538 5535 5532 5531 5533 5537 5544 5551 5558 5564 5570 5574 5578 5580 5582 5583 5584 5584 5584 5583 5581 5579 5575 5571 5567 5562 5557 5551 5545 5538 5531 5523